This is the latest recevied weather packets stored in our database for station/object W8RSN-13. If no packets are shown the sender has not sent any weather packets the latest 10 day(s).
| Time | Temp. | Humidity | Pressure | Rain* | Wind** | Luminosity | Snow |
|---|---|---|---|---|---|---|---|
| 1788136461 | 93° F | 25% | 758.9 mmHg | - | - | - | - |
| 1788136161 | 93° F | 25% | 758.8 mmHg | - | - | - | - |
| 1788135860 | 93° F | 26% | 758.8 mmHg | - | - | - | - |
| 1788135559 | 93° F | 26% | 758.9 mmHg | - | - | - | - |
| 1788135258 | 93° F | 27% | 758.9 mmHg | - | - | - | - |
| 1788134957 | 93° F | 25% | 758.8 mmHg | - | - | - | - |
| 1788134656 | 93° F | 26% | 758.8 mmHg | - | - | - | - |
| 1788134355 | 94° F | 26% | 758.7 mmHg | - | - | - | - |
| 1788134075 | 94° F | 27% | 758.8 mmHg | - | - | - | - |
| 1788133774 | 94° F | 27% | 758.8 mmHg | - | - | - | - |
| 1788133473 | 94° F | 26% | 758.8 mmHg | - | - | - | - |
| 1788133172 | 95° F | 27% | 758.8 mmHg | - | - | - | - |
| 1788132871 | 94° F | 26% | 758.8 mmHg | - | - | - | - |
| 1788132570 | 95° F | 27% | 758.8 mmHg | - | - | - | - |
| 1788132269 | 95° F | 28% | 758.8 mmHg | - | - | - | - |
| 1788131968 | 95° F | 27% | 758.8 mmHg | - | - | - | - |
| 1788131667 | 95° F | 29% | 758.9 mmHg | - | - | - | - |
| 1788131366 | 95° F | 28% | 758.7 mmHg | - | - | - | - |
| 1788131066 | 96° F | 29% | 758.7 mmHg | - | - | - | - |
| 1788130765 | 95° F | 30% | 759 mmHg | - | - | - | - |
| 1788130464 | 95° F | 31% | 759 mmHg | - | - | - | - |
| 1788130163 | 96° F | 28% | 759 mmHg | - | - | - | - |
| 1788129862 | 96° F | 29% | 759 mmHg | - | - | - | - |
| 1788129561 | 96° F | 29% | 759.1 mmHg | - | - | - | - |
| 1788129260 | 96° F | 29% | 759.1 mmHg | - | - | - | - |
* Rain since midnight (hover to see other rain measurements)
** Current wind speed in m/s (hover to see current wind gust speed)